Stations météo

réclame
Mon MeteoGroup
Marseille/Marignane, France (7650): Température de l'air & dewpoint: 12.01.2019 13:00:00 - 18.01.2019 13:00:00 (CET)Marseille/Marignane, France (7650): Température de l'air 5cm: 12.01.2019 13:00:00 - 18.01.2019 13:00:00 (CET)Marseille/Marignane, France (7650): Température de l'air -20cm & Température de l'air -100cm: 12.01.2019 13:00:00 - 18.01.2019 13:00:00 (CET)Marseille/Marignane, France (7650): Vitesse du vent & gusts: 12.01.2019 13:00:00 - 18.01.2019 13:00:00 (CET)Marseille/Marignane, France (7650): Direction du vent: 12.01.2019 13:00:00 - 18.01.2019 13:00:00 (CET)Marseille/Marignane, France (7650): reduced air pressure: 12.01.2019 13:00:00 - 18.01.2019 13:00:00 (CET)Marseille/Marignane, France (7650): visibility: 12.01.2019 13:00:00 - 18.01.2019 13:00:00 (CET)Marseille/Marignane, France (7650): Ensoleillement: 12.01.2019 13:00:00 - 18.01.2019 13:00:00 (CET)Marseille/Marignane, France (7650): Quantités de précipitations: 12.01.2019 13:00:00 - 18.01.2019 13:00:00 (CET)
Date & Time tt [°C] td [°C] tt 5cm [°C] tt -20cm [°C] tt -100cm [°C] ff [km/h] ff [knt] fx [km/h] fx [knt] dd ppp [hPa] vv [km] sd [min] rr [mm]
18.01.2019 13:00:00 - - - - - - - - - - - - - -
18.01.2019 12:00:00 8,3 -0,2 9,3 6,2 11,0 36 20 60 32 NNW 1015,4 20 60 0,0
18.01.2019 11:00:00 7,9 -0,8 7,4 6,2 11,0 46 25 77 41 NNW 1015,6 30 60 0,0
18.01.2019 10:00:00 7,2 0,2 5,7 6,2 11,0 37 20 52 28 NW 1015,5 36 38 0,0
18.01.2019 09:00:00 6,0 0,7 3,8 6,4 11,0 32 17 45 25 NW 1015,5 30 29 0,0
18.01.2019 08:00:00 4,4 1,1 3,0 6,6 11,0 22 12 38 20 WNW 1015,4 48 0 0,0
18.01.2019 07:00:00 4,4 0,2 3,4 6,7 11,0 26 14 40 21 WNW 1015,5 58 0 0,0
18.01.2019 06:00:00 4,3 0,6 3,4 6,9 11,0 29 16 48 26 WNW 1015,4 55 0 0,0
18.01.2019 05:00:00 4,6 1,1 3,7 7,1 11,0 37 20 45 24 WNW 1015,5 50 0 0,0
18.01.2019 04:00:00 5,0 1,5 3,9 7,3 11,0 34 18 41 22 WNW 1015,3 50 0 0,0
18.01.2019 03:00:00 5,6 1,5 4,5 7,5 11,0 21 12 38 21 WNW 1015,9 52 0 0,0
18.01.2019 02:00:00 5,8 2,1 4,6 7,7 11,0 27 14 36 20 WNW 1015,9 45 0 0,0
18.01.2019 01:00:00 5,9 2,7 4,9 7,9 11,0 26 14 35 19 WNW 1016,0 41 0 0,0
18.01.2019 00:00:00 6,4 3,2 5,4 8,1 11,0 24 13 35 19 W 1016,4 34 0 0,0
17.01.2019 23:00:00 6,9 3,5 5,5 8,4 11,0 24 13 32 17 NW 1015,9 23 0 0,0
17.01.2019 22:00:00 6,6 4,6 5,2 8,6 11,0 19 11 24 13 WNW 1015,4 18 0 0,0
17.01.2019 21:00:00 7,4 5,9 5,2 8,8 11,0 16 9 21 12 WNW 1015,0 9 0 0,0
17.01.2019 20:00:00 7,6 6,1 4,7 9,0 11,0 21 11 26 14 WNW 1014,9 8 0 0,0
17.01.2019 19:00:00 8,4 6,2 6,2 9,2 11,0 13 7 22 12 NW 1014,4 8 0 0,0
17.01.2019 18:00:00 8,4 6,7 6,9 9,3 11,0 15 8 16 9 WNW 1014,0 12 2 0,0
17.01.2019 17:00:00 10,0 6,5 10,0 9,2 11,0 11 6 18 10 W 1013,7 15 27 0,0
17.01.2019 16:00:00 11,1 7,4 11,5 9,0 11,0 16 8 26 14 WSW 1014,0 13 2 0,0
17.01.2019 15:00:00 12,6 7,7 12,3 8,7 11,0 11 6 14 8 WSW 1013,8 10 44 0,0
17.01.2019 14:00:00 12,0 8,1 14,5 8,2 11,0 8 4 14 8 WSW 1014,2 10 60 0,0
17.01.2019 13:00:00 11,3 8,3 13,2 7,9 11,0 8 4 19 10 WSW 1014,7 4,8 60 0,0
17.01.2019 12:00:00 11,0 8,9 9,2 7,6 11,0 10 5 22 12 SW 1015,5 6 51 0,0
17.01.2019 11:00:00 8,2 7,4 8,5 7,5 11,0 4 2 9 5 W 1016,0 7 7 0,0
17.01.2019 10:00:00 8,0 7,4 7,7 7,5 11,0 4 2 22 12 WSW 1015,4 3,4 0 0,0
17.01.2019 09:00:00 8,1 7,3 7,3 7,6 11,0 3 1 8 4 W 1014,8 3,1 0 0,0
17.01.2019 08:00:00 8,1 7,3 6,9 7,6 11,0 3 2 11 6 WNW 1014,8 3,5 0 0,0
17.01.2019 07:00:00 8,2 7,8 4,1 7,7 11,0 5 3 9 5 E 1014,5 5 0 0,0
17.01.2019 06:00:00 8,4 7,6 5,6 7,7 11,0 3 2 10 5 SW 1014,7 0,4 0 0,0
17.01.2019 05:00:00 10,1 8,7 9,2 7,7 11,0 8 4 19 10 ESE 1014,9 14 0 0,0
17.01.2019 04:00:00 9,9 8,5 8,8 7,6 11,0 16 9 26 14 E 1015,3 15 0 0,8
17.01.2019 03:00:00 10,3 8,1 9,1 7,5 11,0 18 10 28 15 E 1015,9 8 0 0,2
17.01.2019 02:00:00 11,3 8,2 9,5 7,5 11,0 18 10 29 16 ESE 1016,3 37 0 0,0
17.01.2019 01:00:00 11,9 7,2 10,3 7,5 11,0 18 10 28 15 E 1016,8 40 0 0,0
17.01.2019 00:00:00 11,8 6,1 10,7 7,4 11,0 16 9 24 13 E 1017,3 45 0 0,0
16.01.2019 23:00:00 12,0 5,4 11,0 7,4 11,0 18 10 34 18 E 1017,5 45 0 0,0
16.01.2019 22:00:00 11,7 5,6 10,8 7,3 11,0 16 9 26 14 ESE 1017,8 48 0 0,0
16.01.2019 21:00:00 11,7 4,7 10,8 7,3 11,0 16 9 31 17 ESE 1017,7 32 0 0,0
16.01.2019 20:00:00 11,9 5,1 10,9 7,2 11,0 16 9 27 14 ESE 1017,8 41 0 0,0
16.01.2019 19:00:00 11,6 6,3 10,4 7,2 11,0 15 8 27 15 ESE 1017,7 27 0 0,0
16.01.2019 18:00:00 11,6 6,5 9,7 7,0 11,0 14 7 28 15 ESE 1017,7 35 4 0,0
16.01.2019 17:00:00 11,6 7,3 10,8 6,8 11,0 16 9 27 15 SE 1017,9 49 20 0,0
16.01.2019 16:00:00 13,3 7,3 13,4 6,4 11,0 17 9 32 17 S 1017,8 34 49 0,0
16.01.2019 15:00:00 13,8 7,3 17,8 5,9 11,0 17 9 31 17 S 1017,9 43 60 0,0
16.01.2019 14:00:00 14,4 7,7 15,2 5,4 11,0 18 10 27 15 SSE 1018,1 20 53 0,0
16.01.2019 13:00:00 13,5 7,0 11,6 4,9 11,0 4 2 13 7 SW 1018,9 19 30 0,0
16.01.2019 12:00:00 10,0 5,0 10,9 4,5 11,0 5 3 10 6 W 1019,7 12 57 0,0
16.01.2019 11:00:00 7,8 3,5 7,0 4,4 11,0 8 4 10 5 W 1020,2 12 60 0,0
16.01.2019 10:00:00 6,0 3,0 2,3 4,5 11,0 6 3 8 4 W 1020,4 10 27 0,0
16.01.2019 09:00:00 4,3 1,7 -0,7 4,6 11,0 4 2 9 5 SSE 1020,0 16 27 0,0
16.01.2019 08:00:00 3,4 1,0 -1,3 4,7 11,0 4 2 8 4 SW 1019,8 27 0 0,0
16.01.2019 07:00:00 4,4 1,4 -1,0 4,9 11,0 2 1 12 6 SSW 1019,6 31 0 0,0
16.01.2019 06:00:00 2,5 0,2 -0,8 5,0 11,0 7 4 11 6 SSW 1019,6 12 0 0,0
16.01.2019 05:00:00 4,0 0,0 -1,4 5,2 11,0 6 3 9 5 WSW 1019,9 18 0 0,0
16.01.2019 04:00:00 3,4 -0,8 -1,7 5,4 11,0 2 1 9 5 ESE 1020,2 16 0 0,0
16.01.2019 03:00:00 1,9 -1,2 -2,7 5,6 11,0 5 3 11 6 SE 1020,4 12 0 0,0
16.01.2019 02:00:00 1,6 -0,5 -2,9 5,9 11,0 4 2 9 5 S 1020,2 13 0 0,0
16.01.2019 01:00:00 3,0 0,7 -2,5 6,2 11,0 3 2 9 5 NNE 1020,4 10 0 0,0
16.01.2019 00:00:00 1,9 -0,7 -2,2 6,5 11,0 8 4 13 7 SSE 1020,5 9 0 0,0
15.01.2019 23:00:00 3,7 -0,1 -1,6 6,8 11,0 3 2 6 4 S 1020,5 8 0 0,0
15.01.2019 22:00:00 2,9 -0,4 -1,3 7,0 11,0 3 1 11 6 SW 1020,4 12 0 0,0
15.01.2019 21:00:00 3,2 -0,8 -0,3 7,4 11,0 3 2 16 8 E 1020,2 10 0 0,0
15.01.2019 20:00:00 5,1 1,0 1,0 7,6 11,0 12 6 14 8 SE 1020,1 11 0 0,0
15.01.2019 19:00:00 6,7 1,8 1,6 7,8 11,0 4 2 14 8 S 1020,1 14 0 0,0
15.01.2019 18:00:00 7,4 1,2 3,4 7,9 11,0 5 3 31 17 W 1019,6 29 3 0,0
15.01.2019 17:00:00 11,4 1,1 11,4 7,8 11,0 14 8 27 14 NNW 1019,0 40 60 0,0
15.01.2019 16:00:00 11,1 3,1 13,2 7,5 11,0 13 7 24 13 WNW 1018,8 20 60 0,0
15.01.2019 15:00:00 12,7 1,7 15,3 7,1 11,0 13 7 18 10 WNW 1018,9 55 60 0,0
15.01.2019 14:00:00 12,8 1,1 15,3 6,7 11,0 13 7 23 13 NW 1019,1 20 60 0,0
15.01.2019 13:00:00 11,8 1,7 14,9 6,4 11,0 13 7 31 17 NNW 1019,8 48 60 0,0
15.01.2019 12:00:00 10,9 1,4 12,6 6,1 11,0 16 9 26 14 N 1020,3 39 60 0,0
15.01.2019 11:00:00 9,2 1,8 8,6 6,1 11,0 9 5 24 13 NNW 1020,8 38 60 0,0
15.01.2019 10:00:00 7,8 1,0 6,3 6,1 11,0 10 6 27 15 NNE 1020,4 35 40 0,0
15.01.2019 09:00:00 6,3 1,2 4,8 6,2 11,0 19 10 51 27 N 1019,9 44 27 0,0
15.01.2019 08:00:00 6,1 1,4 5,1 6,4 11,0 25 14 40 21 N 1019,2 52 0 0,0
15.01.2019 07:00:00 6,6 1,5 5,7 6,5 11,0 32 17 50 27 N 1018,8 50 0 0,0
15.01.2019 06:00:00 7,0 1,5 6,0 6,5 11,0 29 16 42 23 NNW 1018,4 55 0 0,0
15.01.2019 05:00:00 7,3 1,6 6,2 6,6 11,0 25 13 58 32 N 1018,2 49 0 0,0
15.01.2019 04:00:00 7,7 1,7 6,8 6,7 11,0 43 23 74 40 N 1017,8 50 0 0,0
15.01.2019 03:00:00 8,1 1,5 7,3 6,7 11,0 53 29 80 43 NNW 1016,7 51 0 0,0
15.01.2019 02:00:00 8,3 1,4 7,4 6,8 11,0 51 27 79 43 NNW 1016,8 59 0 0,0
15.01.2019 01:00:00 8,5 1,6 7,6 6,9 11,0 56 30 81 44 NNW 1016,6 57 0 0,0
15.01.2019 00:00:00 8,8 1,5 7,8 7,0 11,0 53 28 72 39 NW 1016,7 60 0 0,0
14.01.2019 23:00:00 8,8 1,5 7,7 7,1 11,0 33 18 74 40 NW 1017,5 59 0 0,0
14.01.2019 22:00:00 9,1 1,5 8,2 7,2 11,0 53 29 82 45 NW 1016,8 49 0 0,0
14.01.2019 21:00:00 9,4 0,8 8,1 7,3 11,0 54 29 76 41 WNW 1016,4 57 0 0,0
14.01.2019 20:00:00 9,5 0,4 8,6 7,4 11,0 41 22 70 38 WNW 1016,5 60 0 0,0
14.01.2019 19:00:00 10,0 0,6 9,0 7,5 11,0 39 21 70 38 NW 1015,4 60 0 0,0
14.01.2019 18:00:00 10,5 0,2 9,7 7,5 11,0 45 24 96 52 NW 1015,0 60 2 0,0
14.01.2019 17:00:00 11,5 0,0 11,5 7,5 11,0 61 33 99 54 NW 1013,7 13 60 0,0
14.01.2019 16:00:00 12,5 -0,1 13,3 7,4 11,0 63 34 101 55 NW 1013,3 10 60 0,0
14.01.2019 15:00:00 12,6 1,0 13,8 7,1 11,0 61 33 87 47 NW 1012,9 11 60 0,0
14.01.2019 14:00:00 13,3 2,8 13,5 6,9 11,0 56 30 95 52 NW 1012,5 11 56 0,0
14.01.2019 13:00:00 13,8 2,7 14,5 6,6 11,0 59 32 98 53 NW 1012,7 11 60 0,0
14.01.2019 12:00:00 13,3 3,1 13,6 6,4 11,1 55 30 89 48 NW 1012,8 18 60 0,0
14.01.2019 11:00:00 12,4 4,8 11,1 6,2 11,1 48 26 72 39 NW 1014,3 43 60 0,0
14.01.2019 10:00:00 11,5 4,7 9,7 6,2 11,1 29 16 54 29 NW 1014,6 60 35 0,0
14.01.2019 09:00:00 10,6 4,7 7,4 6,2 11,1 37 20 51 28 NW 1013,9 51 0 0,0
14.01.2019 08:00:00 8,7 4,7 7,5 6,2 11,1 28 15 47 26 WNW 1013,1 60 0 0,0
14.01.2019 07:00:00 9,7 4,9 7,7 6,2 11,1 40 22 49 26 WNW 1012,8 60 0 0,0
14.01.2019 06:00:00 8,7 4,7 7,9 6,2 11,1 28 15 42 23 WNW 1012,6 60 0 0,0
14.01.2019 05:00:00 9,5 4,9 7,7 6,2 11,1 31 17 44 24 WNW 1012,6 60 0 0,0
14.01.2019 04:00:00 8,9 4,9 6,3 6,2 11,1 32 17 37 20 NW 1012,5 60 0 0,0
14.01.2019 03:00:00 8,0 5,1 6,7 6,2 11,1 27 14 36 19 WNW 1013,3 60 0 0,0
14.01.2019 02:00:00 7,8 5,3 7,1 6,2 11,1 29 15 43 23 W 1013,0 57 0 0,0
14.01.2019 01:00:00 8,7 5,4 6,9 6,3 11,1 37 20 48 26 W 1013,5 56 0 0,0
14.01.2019 00:00:00 7,8 4,9 6,9 6,3 11,1 25 13 38 21 WNW 1014,5 55 0 0,0
13.01.2019 23:00:00 8,3 5,2 7,4 6,4 11,1 32 17 42 23 W 1014,9 60 0 0,0
13.01.2019 22:00:00 8,5 5,6 7,3 6,4 11,1 34 18 39 21 WNW 1015,3 60 0 0,0
13.01.2019 21:00:00 8,5 5,8 6,9 6,4 11,1 31 17 40 22 WNW 1015,5 49 0 0,0
13.01.2019 20:00:00 8,2 5,5 7,3 6,4 11,1 29 16 45 24 WNW 1016,0 41 0 0,0
13.01.2019 19:00:00 10,0 5,8 7,8 6,4 11,1 37 20 46 25 WNW 1015,6 60 0 0,0
13.01.2019 18:00:00 9,9 5,3 8,9 6,3 11,1 28 15 46 25 WNW 1016,0 60 0 0,0
13.01.2019 17:00:00 10,9 5,2 10,3 6,1 11,1 35 19 62 33 WNW 1016,2 55 43 0,0
13.01.2019 16:00:00 11,7 5,1 11,3 5,9 11,1 49 27 66 36 NW 1015,7 45 38 0,0
13.01.2019 15:00:00 11,3 5,0 11,4 5,7 11,1 47 26 64 35 NW 1016,1 53 29 0,0
13.01.2019 14:00:00 10,5 5,3 10,7 5,5 11,1 41 22 57 31 WNW 1016,4 54 14 0,0
13.01.2019 13:00:00 10,2 4,8 10,1 5,2 11,1 46 25 54 29 WNW 1017,8 60 0 0,0
13.01.2019 12:00:00 9,2 4,4 8,7 5,0 11,1 39 21 50 27 W 1019,0 60 0 0,0
13.01.2019 11:00:00 8,2 4,4 8,5 4,9 11,2 31 17 42 23 W 1019,5 54 0 0,0
13.01.2019 10:00:00 8,8 3,6 8,4 4,8 11,1 33 18 59 32 WNW 1019,7 57 0 0,0
13.01.2019 09:00:00 9,3 3,3 7,1 4,7 11,2 45 24 67 36 WNW 1019,4 59 0 0,0
13.01.2019 08:00:00 7,9 3,2 6,8 4,7 11,2 38 21 58 31 WNW 1019,1 60 0 0,0
13.01.2019 07:00:00 7,6 3,1 6,7 4,7 11,2 36 19 55 30 WNW 1018,8 60 0 0,0
13.01.2019 06:00:00 7,7 2,8 6,0 4,7 11,2 30 16 60 32 WNW 1019,0 59 0 0,0
13.01.2019 05:00:00 6,9 2,4 5,6 4,6 11,2 33 18 53 29 NW 1019,4 53 0 0,0
13.01.2019 04:00:00 6,7 2,4 5,9 4,6 11,2 35 19 52 28 WNW 1020,1 48 0 0,0
13.01.2019 03:00:00 6,8 2,3 5,9 4,6 11,2 32 17 66 36 WNW 1020,7 52 0 0,0
13.01.2019 02:00:00 7,6 1,6 6,9 4,5 11,2 48 26 76 41 WNW 1019,9 46 0 0,0
13.01.2019 01:00:00 8,6 1,5 7,4 4,5 11,3 48 26 85 46 NW 1020,3 55 0 0,0
13.01.2019 00:00:00 8,1 0,8 7,1 4,4 11,2 31 17 84 45 WNW 1021,3 60 0 0,0
12.01.2019 23:00:00 8,4 0,4 6,7 4,4 11,2 42 23 67 36 NW 1021,0 60 0 0,0
12.01.2019 22:00:00 7,9 -0,1 6,1 4,4 11,2 37 20 56 30 WNW 1021,5 60 0 0,0
12.01.2019 21:00:00 7,5 -0,5 6,2 4,4 11,2 28 15 59 32 NW 1021,3 60 0 0,0
12.01.2019 20:00:00 7,5 -0,5 6,3 4,4 11,3 36 20 61 33 NW 1021,2 59 0 0,0
12.01.2019 19:00:00 7,7 0,2 6,8 4,3 11,3 42 23 73 39 NW 1021,5 59 0 0,0
12.01.2019 18:00:00 8,2 0,7 7,2 4,1 11,3 41 22 59 32 NW 1021,2 60 0 0,0
12.01.2019 17:00:00 9,2 0,9 9,1 3,8 11,3 39 21 57 31 NNW 1020,9 38 60 0,0
12.01.2019 16:00:00 10,0 1,4 11,3 3,5 11,3 39 21 60 32 NNW 1021,0 28 60 0,0
12.01.2019 15:00:00 10,9 1,4 12,9 3,1 11,3 34 18 57 31 NNW 1021,1 28 60 0,0
12.01.2019 14:00:00 11,0 1,8 12,4 2,8 11,3 28 15 50 27 NNW 1021,3 29 60 0,0
12.01.2019 13:00:00 10,3 1,6 11,9 2,8 11,3 30 16 45 24 NNW 1022,0 19 60 0,0

tt = Température de l'air
td = dewpoint
tt 5cm = Température de l'air 5cm
tt -20cm = Température de l'air -20cm
tt -100cm = Température de l'air -100cm
ff = Vitesse du vent
fx = gusts
dd = Direction du vent
ppp = reduced air pressure
vv = visibility
sd = Ensoleillement
rr = Quantités de précipitations

stations d'obs. à proximité